Find Starlink 38276

NORAD ID: 100390 Int'l Des: 2026-190 Owner: SPXS Country: US Constellation: starlink operational

Aktuelle Ansicht

3D-Globus wird geladen...

About Starlink 38276

Starlink 38276 (NORAD 100390) is a starlink constellation satellite launched Aug 19, 2026 by SPXS of US. with a mass of 575.00 kg.

Nächste Überflüge

Passes for default location (London). Set your location on the main map for personalized predictions.

Höhenverlauf

Loading altitude history...

Zweizeiliger Elementsatz

1 A0390U 26190V 26249.60136019 .00109832 00000-0 72704-3 0 9995
2 A0390 97.2843 103.2106 0000773 45.9588 314.1740 15.75214447 4189
Epoch: 6. Sept. 2026 • Age: 6 hours

Aktueller Status

Höhe 350.3 km
Apogäum / Perigäum N/A
Geschwindigkeit 7.70 km/s
Subsatellitenpunkt -16.30°S, 172.74°E
Startdatum 19. Aug. 2026
Alter 18 days
Typ internet

Technische Details

Klassifizierung Payload
Masse 575.00 kg
Trockenmasse 530.00 kg
Gesamtmasse 575.00 kg
Länge 0.30 m
Durchmesser 4.10 m
Spannweite 29.00 m
Form Box + pan
Hersteller SPXS
Bus-Typ Starlink V2MO
Phasenstatus In Orbit
Besitzer/Staat SPXS/US

Most Searched